Regional Weather Roundup
Issued by NWS

Home | Current Version | Previous Version | Text Only | Print | Product List | Glossary On
Versions: 1 2 3 4 5 6 7 8 9 10 11 12 13 14 15 16 17 18 19 20 21 22 23 24 25 26 27
000
ASUS45 KBOU 270107
RWRCO

WEATHER ROUNDUP FOR COLORADO
NATIONAL WEATHER SERVICE DENVER/BOULDER CO
700 PM MDT WED APR 26 2017

NOTE: "FAIR" INDICATES FEW OR NO CLOUDS BELOW 12000 FEET WITH NO
SIGNIFICANT WEATHER AND/OR OBSTRUCTIONS TO VISIBILITY.

COZ001>005-013-030-031-270200-
...NORTHWEST COLORADO...

CITY           SKY/WX    TMP DP  RH WIND       PRES   REMARKS
CRAIG          CLOUDY    49  27  42 W18       29.74R
HAYDEN         CLOUDY    43  30  61 S7        29.75S
MEEKER         CLOUDY    44  37  76 NE10      29.76S
MOUNT WERNER   NOT AVBL
STEAMBOAT SPGS MOCLDY    38  34  85 E8        29.76S
WALDEN           N/A     34  32  93 S12       29.79R WCI  25
$$

COZ006>008-011-270200-
...WEST CENTRAL VALLEYS...

CITY           SKY/WX    TMP DP  RH WIND       PRES   REMARKS
GRAND JUNCTION CLOUDY    59  22  24 W9        29.73S
MONTROSE       CLOUDY    55  22  27 N6        29.77R
EAGLE          MOCLDY    46  28  49 W9        29.81R
RIFLE          CLOUDY    50  33  52 E5        29.77R
DELTA          FAIR      61  19  20 W7        29.75R
NUCLA          PTSUNNY   55  18  22 W12G17    29.80S
$$

COZ017>023-064>068-270200-
...SOUTHWEST COLORADO...

CITY           SKY/WX    TMP DP  RH WIND       PRES   REMARKS
DURANGO        FAIR      52  16  24 NW12      29.81R
CORTEZ         PTSUNNY   57  18  21 W9        29.79S
PAGOSA SPRINGS FAIR      50  19  30 SW17G24   29.82S
TELLURIDE      CLOUDY    41  22  47 SW8       29.90R
WOLF CREEK PAS CLOUDY    27  19  74 S20G33    29.95S WCI  13
$$

COZ009-010-012-014-032>034-037-058>063-270200-
...CENTRAL COLORADO...

CITY           SKY/WX    TMP DP  RH WIND       PRES   REMARKS
ASPEN          CLOUDY    39  30  70 NW6       29.81R
BUENA VISTA    FAIR      45  16  31 W18G29    29.77R
COPPER MTN     LGT SNOW  27  21  80 MISG      29.86S
BERTHOUD PASS  MOCLDY    18   7  62 NW32G43   29.81F WCI  -3
COTTONWOOD PAS MOCLDY    37  18  44 SW17G28   29.81S
GUNNISON       FAIR      45  24  43 W8        29.82S
KREMMLING      LGT RAIN  41  34  75 CALM      29.80R
LEADVILLE      CLOUDY    32  20  61 N6        29.82R WCI  26
MONARCH PASS   CLOUDY    23  21  93 W44G54    29.92F WCI   3
SALIDA         FAIR      45  26  46 W18G25    29.83F
SUNLIGHT       PTSUNNY   28  27  93 SW6       29.91R WCI  22
WILKERSON PASS MOCLDY    30  14  51 NW8G16    29.86S WCI  23
$$

COZ069>075-270200-
...SAN LUIS VALLEY/SANGRE DE CRISTO MOUNTAINS...

CITY           SKY/WX    TMP DP  RH WIND       PRES   REMARKS
ALAMOSA        CLOUDY    49  26  41 E6        29.76F
LA VETA PASS   LGT SNOW  32  27  80 SW15G21   29.95S WCI  22
SAGUACHE       FAIR      46  21  36 N13       29.78S
$$

COZ035-036-038>040-270200-
...NORTHERN COLORADO FRONT RANGE...

CITY           SKY/WX    TMP DP  RH WIND       PRES   REMARKS
DENVER INTL AP MOCLDY    53  25  33 VRB7G31   29.68R
DMNS CITY PARK   N/A     55  23  29 N13G20    29.67S
AURORA         MOCLDY    52  26  36 NW10      29.70R
FRONT RANGE AP MOCLDY    54  32  43 NE15G22   29.70R
ERIE MUNI ARPT FAIR      53  29  39 W8        29.69S
BOULDER MUN AP FAIR      54  30  40 W8        29.68F
CENTENNIAL     LGT RAIN  49  28  44 N18G32    29.71R
BROOMFIELD     MOCLDY    54  27  35 W20G25    29.70R
FORT COLLINS   FAIR      56  29  35 SE12      29.68R
LONGMONT       FAIR      58  27  30 NW8       29.69S
$$

COZ041-046-047-076>085-087-088-270200-
...PIKES PEAK/PALMER DIVIDE AND SOUTHERN FOOTHILLS...

CITY           SKY/WX    TMP DP  RH WIND       PRES   REMARKS
COLO. SPRINGS  MOCLDY    53  28  38 W12       29.73R
A. F. ACADEMY  MOCLDY    46  29  49 S5        29.71F
SCHRIEVER AFB  MOCLDY    49  30  48 S13G20    29.74R
ELLICOTT       MOCLDY   N/A N/A N/A E14       29.73R
FALCON         MOCLDY    47  29  49 S14       29.75S
FORT CARSON    FAIR      52  29  42 W3        29.71F
LIMON          MOCLDY    49  32  52 SW15      29.71R
MONUMENT HILL  CLOUDY    41  32  70 S9        29.75S
TRINIDAD       CLOUDY    51  37  58 S15       29.72R
$$

COZ042>045-048>051-090-091-270200-
...NORTHEAST COLORADO...

CITY           SKY/WX    TMP DP  RH WIND       PRES   REMARKS
GREELEY ARPT   CLOUDY    55  31  39 E8        29.69R
AKRON          CLOUDY    52  32  46 N9        29.68S
BURLINGTON     NOT AVBL
WRAY           NOT AVBL
STERLING       MOCLDY    50  37  62 N7        29.68F
HOLYOKE        FAIR      54  34  47 E3        29.68R
FORT MORGAN    FAIR      51  32  48 N10       29.69R
$$

COZ086-089-092>099-270200-
...SOUTHEAST COLORADO...

CITY           SKY/WX    TMP DP  RH WIND       PRES   REMARKS
PUEBLO         FAIR      56  32  40 SE10      29.68F
LA JUNTA       MOCLDY    58  33  39 SE10      29.69F
LAMAR          FAIR      57  30  35 E7        29.68S
SPRINGFIELD      N/A     54  31  41 N15G21    29.73R
$$




USA.gov is the U.S. government's official web portal to all federal, state and local government web resources and services.